Location: Savignano sul Rubicone
(44.0950°N, 12.4090°E)
Time: 00:45:15
(UTC+01:00)

Tiangong 2 - Pass Details

Date: 21 February 2019
Orbit: 379 x 390 km, 42.8° (Epoch: 20 March)

Event Time Altitude Azimuth Distance (km) Brightness Sun altitude
Rises 18:14:27 0° 275° (W) 2,259 6.9 -5.6°
Reaches altitude 10° 18:16:49 10° 259° (W) 1,400 5.8 -6.0°
Maximum altitude 18:19:18 22° 206° (SSW) 903 3.4 -6.4°
Drops below altitude 10° 18:21:47 10° 154° (SSE) 1,390 3.7 -6.9°
Sets 18:24:07 0° 138° (SE) 2,237 4.6 -7.3°
